FENGYUN 1C DEB, 30803

Orbit data source: Space-Track

FENGYUN 1C DEB, 30803 is space debris in SSO originally from a launch on Mon, 10 May 1999 UTC launched from the Taiyaun Space Center, China (TSC). Fengyun 1C debris stems from the Chinese weather satellite Fengyun-1C, which was intentionally destroyed by a Chinese anti-satellite missile in 2007. This event dramatically increased the amount of space debris, with thousands of trackable fragments posing hazards to satellites and human spaceflight. The Fengyun 1C debris cloud has become a focal point in discussions about space sustainability and the need for international regulations to prevent the creation of new debris.

Loading next visibility...
Identifier
30803, 1999-025AUM
Orbit
SSO
Country
Flag of CNCN / PRC
Related business
Manufacturer
Unknown
Mission
Spacecraft
Bus & Motor
Unknown
Mass
Unknown
Launch date (UTC)
1999-05-10 (26 years ago)
Launch vehicle
Unknown
Launch site
Taiyaun Space Center, China (TSC)
Object type
Payload
Rocket body
Debris
Shape & HBR
Unknown shape, 0.1 m
Radar Cross Section
Small (<0.1 m²)

Expand to show TLE details & history
Last TLE update: 1 day ago

TLE from 1 day ago
0 FENGYUN 1C DEB
1 30803U 99025AUM 25309.04032839  .00002409  00000-0  12981-2 0  9995
2 30803  99.2494 341.1067 0105656 306.8401 118.9672 14.10977808954670
Epoch: 2025-11-05T00:58Z
TLE epoch observation values (Epoch: 2025-11-05T00:58:04.372Z)
Latitude
65.2621°
Longitude
-98.51504°
Altitude
904.877 km
Speed
7.386 km/s
True Right ascension
21h 22m 05s
True Declination
65° 08' 02"
Sunlit
Object was in daylight at epoch
Visualization orbit readout
Latitude
Unknown
Longitude
Unknown
Altitude
Unknown
Speed
Unknown
Apparent Right ascension
Unknown
Apparent Declination
Unknown
Sunlit
N/A
Visualization observer readout
Local Sidereal Time
00:11:17
Azimuth
Unknown
Elevation
Unknown
Doppler factor
Unknown
Orbital elements
Apogee altitude
929.628 km
Perigee altitude
776.821 km
Semi-major axis
7,231.361 km
Eccentricity
0.01057
Inclination
99.2494°
RAAN
341.1067°
Arg. of periapsis
306.8401°
True anomaly
120.01967°
Mean anomaly
118.9672°
Eccentric anomaly
119.49411°
Mean motion
3.5295 °/min
Orbital period
102 mins
BSTAR
0.0012981
Loading maneuver chart data...
Computing Atmospheric mass density...

Documentation

Showing up to 5 results
|